Location: Waldport
(44.4270°N, 124.0680°W)
Time: 05:25:36
(UTC-07:00)

Meteor 1-26 Rocket - Visible Passes

Search period start: 24 July 2014 00:00
Search period end: 03 August 2014 00:00
Orbit: 825 x 911 km, 81.3° (Epoch: 23 July)

Date Brightness Start Highest point End Pass type
(mag) Time Alt. Az. Time Alt. Az. Time Alt. Az.
24 Jul 7.2 21:40:43 10° NW 21:43:17 13° W 21:45:49 10° WSW visible
25 Jul 7.2 21:34:02 10° NW 21:36:28 13° W 21:38:53 10° WSW visible
26 Jul 7.3 21:27:21 10° WNW 21:29:39 13° W 21:31:56 10° WSW visible
27 Jul 7.4 21:20:40 10° WNW 21:22:50 12° W 21:24:59 10° WSW visible
28 Jul 7.4 21:14:00 10° WNW 21:16:01 12° W 21:18:01 10° W visible
